Temperature
17 17 18 19 21 22 22 23 23 23 24 23 22 23 25 25 26 24 20 20 20 19 18 17 16 15 15 15 15 15 15 15 14 13 13 12 12 11 11 11 11 11 12 12 12 13 13 13 13
17 17 18 20 21 22 22 23 23 23 23 22 22 22 24 24 22 20 20 20 19 19 17 16 15 15 15 15 15 15 15 15 14 13 12 12 11 11 11 11 11 11 12 12 12 13 12 12 12
16 17 19 21 21 22 22 23 23 22 21 21 23 23 23 23 21 20 19 20 19 18 17 16 16 15 15 15 15 15 15 15 14 13 12 11 11 11 12 12 12 12 12 12 12 12 12 12 12
16 17 19 20 21 22 23 23 22 22 22 22 22 24 23 21 20 19 20 20 19 18 17 17 16 15 15 15 15 16 16 15 14 13 12 12 12 12 12 13 13 13 13 13 12 13 13 13 13
16 18 19 20 21 22 22 22 21 22 23 22 22 23 23 20 20 20 20 19 19 18 17 17 16 15 15 15 15 16 16 15 14 14 13 12 12 12 12 13 13 13 13 13 13 13 13 13 13
17 19 19 20 21 22 22 21 21 22 22 22 22 23 23 21 20 20 20 19 18 18 17 16 15 15 15 15 15 15 16 15 15 14 13 12 12 13 13 13 13 13 13 13 13 13 13 13 13
17 18 19 20 21 21 21 20 21 22 22 22 22 23 23 20 20 20 19 18 18 18 17 16 15 15 14 14 14 15 15 15 15 14 14 13 13 13 13 13 13 13 13 13 13 13 13 13 13
16 18 19 19 20 21 21 20 20 21 22 21 21 23 23 20 20 20 19 18 18 17 17 16 15 15 14 14 14 14 15 15 15 15 14 14 13 13 13 13 13 13 13 13 13 13 13 13 13
14 17 18 19 19 20 20 20 20 19 20 20 20 21 19 19 19 19 19 18 18 18 17 16 15 15 14 14 14 14 14 14 15 15 14 14 12 12 12 13 13 13 13 13 13 13 13 13 12
15 16 18 19 19 19 19 19 19 19 20 21 20 19 18 18 18 18 18 18 18 18 18 17 16 15 14 14 14 14 14 14 14 13 13 13 12 12 13 13 13 13 13 13 12 12 12 12 12
15 16 17 16 16 17 18 18 18 19 20 21 20 19 18 17 17 17 18 18 18 18 18 17 16 16 15 14 14 14 14 14 13 13 13 13 13 13 13 13 13 13 12 12 12 12 12 12 12
14 15 14 15 14 15 16 17 17 18 19 19 18 17 17 18 18 18 18 18 17 17 17 18 17 16 16 15 14 14 14 14 14 14 13 13 13 13 12 12 12 12 12 12 12 12 12 12 12
13 14 13 13 13 14 14 15 16 17 17 17 17 17 17 18 18 18 17 17 17 17 17 18 17 17 16 16 15 15 14 14 14 14 13 13 13 13 12 12 12 12 12 12 12 12 12 12 12
13 13 13 13 13 14 14 15 15 16 16 16 16 17 17 18 18 18 18 17 18 18 18 18 18 17 17 16 16 15 15 14 14 14 14 13 13 13 12 12 12 12 12 12 12 12 11 11 11
11 12 13 13 13 14 14 14 16 16 16 16 16 17 17 17 18 18 18 18 18 18 18 18 18 18 17 17 16 16 15 14 14 14 13 13 13 13 12 12 12 12 12 12 12 11 11 11 11
12 12 13 14 13 13 13 14 17 16 16 16 16 17 17 17 17 18 18 18 18 18 18 18 18 18 18 17 17 16 15 14 14 14 13 13 13 13 12 12 12 12 12 12 11 11 11 11 10
11 12 13 13 13 13 13 14 16 15 14 15 16 16 16 17 17 17 17 18 18 18 18 18 19 18 18 17 17 16 15 14 14 13 13 13 13 13 12 12 12 12 11 11 11 11 11 10 10
12 12 12 13 13 13 13 14 15 14 14 15 15 15 15 16 16 17 17 17 17 18 18 18 18 18 18 17 16 15 15 14 14 13 13 13 13 13 12 12 12 11 11 11 11 11 11 10 9
11 11 11 12 13 12 12 13 14 15 14 14 15 15 15 15 15 16 16 16 16 17 18 18 18 18 18 17 17 16 14 14 13 13 13 13 13 12 12 12 11 11 11 11 11 10 10 9 9
10 10 10 11 12 11 11 12 14 14 14 14 14 15 15 15 15 15 15 15 16 16 17 18 18 18 18 18 17 16 15 14 13 13 13 12 12 12 12 11 11 11 10 10 10 10 9 9 8
9 9 10 10 11 11 11 12 15 16 15 14 14 14 14 15 15 16 16 15 16 16 17 18 18 18 18 17 16 16 15 13 13 12 12 12 11 11 11 11 10 10 10 10 10 9 8 8 7
9 10 9 9 9 10 10 11 15 16 15 15 15 14 15 15 15 15 15 15 15 16 16 17 17 17 17 17 17 16 15 13 12 12 12 11 11 11 10 10 10 10 10 9 9 8 7 7 6
9 9 9 9 9 8 10 9 13 16 15 15 16 15 15 15 15 14 15 15 15 15 16 16 17 16 16 16 16 15 13 13 12 12 11 11 10 10 10 10 10 9 9 9 8 7 6 6 5
9 8 9 9 8 7 10 10 13 16 16 16 17 16 15 15 14 14 14 14 14 14 15 16 16 16 16 15 14 13 13 13 12 11 11 10 10 9 9 9 9 9 8 8 7 6 6 5 4
8 7 8 8 7 9 11 10 12 15 15 15 16 16 15 15 14 14 14 13 13 13 14 15 15 15 15 14 13 13 12 12 12 11 11 10 9 9 9 9 9 8 7 7 6 5 5 4 4
8 8 9 9 10 11 11 10 13 15 15 14 14 14 14 14 14 14 13 13 12 13 14 14 15 15 14 13 12 12 12 11 11 11 10 10 9 9 9 8 8 7 7 6 5 5 4 3 3
7 7 9 8 8 8 11 12 14 15 14 14 14 13 13 13 13 13 13 12 12 12 13 14 14 14 13 12 12 11 11 11 11 10 9 9 9 8 8 8 7 6 6 5 4 4 3 3 2
9 9 7 7 7 9 11 13 14 15 14 14 14 13 13 12 12 12 12 11 10 10 11 11 12 12 12 12 11 11 11 10 10 9 9 8 8 8 7 7 6 6 5 4 4 3 2 2 1
7 7 7 8 8 8 10 13 15 15 14 14 13 12 12 11 11 11 11 10 9 9 8 8 9 10 11 11 11 10 10 9 9 8 8 8 8 7 7 6 5 5 4 3 3 2 2 1 1
9 9 8 7 8 8 9 11 15 14 14 13 12 11 10 10 10 10 10 9 8 7 7 7 8 9 10 11 10 10 9 8 8 8 8 7 7 7 6 5 4 4 3 3 2 2 1 1 0
Wind_Speed
9 7 4 3 5 7 9 5 4 3 3 2 4 6 5 3 3 1 4 10 10 16 17 19 18 17 16 14 13 12 11 11 10 9 9 9 9 8 7 6 5 6 8 9 9 10 10 10 10
6 4 3 4 7 10 8 7 7 3 2 5 4 5 5 3 1 3 7 10 12 16 17 17 18 17 16 15 13 12 11 10 10 10 9 9 9 8 7 7 6 7 7 8 9 10 10 10 9
3 3 4 5 9 12 6 5 7 1 4 3 2 3 3 0 2 4 7 13 13 15 16 17 19 17 16 14 13 12 11 11 10 10 10 10 9 8 7 7 7 7 7 7 8 8 8 8 7
4 4 5 10 17 15 9 4 4 2 1 2 4 3 2 1 2 4 10 13 14 15 15 18 18 17 16 14 13 12 11 11 11 10 10 9 8 8 8 7 7 6 6 6 6 6 6 6 6
5 6 11 15 20 14 11 6 4 4 3 3 5 4 2 3 3 6 12 13 14 15 14 18 18 17 16 14 13 12 12 11 11 10 9 8 7 7 7 6 6 5 5 5 5 5 5 4 4
7 7 13 18 21 16 13 10 8 9 6 5 4 4 2 4 5 8 12 12 13 14 14 16 18 17 16 15 13 12 12 11 11 10 9 8 7 6 6 5 4 4 3 4 4 4 4 4 4
10 11 17 20 19 18 14 9 12 11 10 7 4 4 3 5 5 8 10 10 12 13 13 14 16 17 16 15 13 12 12 11 11 9 8 7 7 6 6 5 3 2 2 3 3 3 3 4 4
8 8 15 18 20 18 11 8 8 11 11 4 4 6 3 4 7 9 9 9 10 12 13 13 14 15 15 14 14 13 12 11 10 8 8 8 8 7 6 4 3 2 2 3 4 4 5 5 5
6 11 16 17 15 13 9 11 9 6 8 7 6 4 3 3 9 10 9 9 10 11 12 12 13 13 13 12 13 14 13 11 10 9 9 8 6 5 5 4 4 2 3 4 4 5 5 3 4
9 13 17 10 10 9 8 9 8 7 11 10 9 3 2 4 9 11 12 13 13 13 13 12 13 12 12 11 11 11 11 11 10 9 10 8 6 4 3 6 5 4 4 5 5 4 2 2 2
9 11 11 9 9 8 9 9 7 10 13 12 8 3 2 2 7 11 12 12 13 13 14 13 13 13 12 10 10 9 8 9 9 9 9 7 6 5 4 4 4 4 3 3 3 2 3 4 4
8 10 8 8 7 9 12 12 13 15 16 9 6 7 7 6 7 11 12 12 11 12 14 14 14 13 13 11 10 9 8 8 8 9 10 8 6 5 5 4 3 3 3 3 2 3 4 3 4
13 8 9 9 9 10 13 17 18 20 19 17 16 15 15 14 12 10 11 11 11 12 13 15 15 15 14 12 10 9 9 9 10 9 10 9 7 6 5 4 4 3 3 3 3 2 3 3 3
6 8 8 9 12 12 17 20 20 20 19 20 21 21 20 19 16 13 12 13 13 13 13 14 16 16 15 13 12 11 10 10 10 10 11 11 8 6 6 5 4 4 4 3 3 3 3 3 3
4 7 10 12 13 10 12 19 24 24 22 22 23 23 22 22 20 18 16 14 14 13 13 14 15 16 16 15 14 10 10 11 10 10 11 11 9 8 7 5 5 5 5 5 4 4 3 3 2
4 6 7 5 6 8 10 18 14 12 16 20 21 22 22 22 22 21 19 16 15 13 13 13 13 16 17 15 13 10 10 11 10 10 11 11 11 10 8 6 5 6 5 4 3 3 3 3 3
6 7 8 6 6 6 11 14 10 7 11 15 17 18 19 19 21 20 19 18 16 14 13 13 14 16 16 14 12 11 10 10 9 10 9 11 11 11 9 7 7 7 5 4 4 4 3 4 4
7 7 7 8 4 8 15 19 17 16 17 18 18 18 18 19 20 19 18 16 15 14 13 13 14 15 14 12 10 8 9 8 7 8 9 12 11 12 11 8 8 7 5 4 4 5 4 4 5
4 7 10 10 9 12 19 24 23 21 22 23 23 22 22 22 21 19 18 16 14 13 13 14 14 15 14 12 12 10 8 7 7 7 11 12 13 13 11 8 7 6 5 5 4 4 4 5 5
11 12 14 13 11 11 20 29 26 26 26 26 25 25 24 24 23 22 20 18 16 15 14 14 15 16 16 14 12 9 9 7 8 8 10 12 13 12 10 9 8 7 6 6 5 4 3 4 5
13 15 14 13 14 14 17 23 20 17 19 22 24 25 25 25 25 24 23 21 18 17 16 13 16 17 17 16 12 12 9 7 6 8 8 9 12 12 11 11 9 7 6 5 5 5 4 3 4
10 9 12 12 10 8 6 12 17 12 13 16 19 20 22 23 23 23 23 22 21 19 15 15 15 17 18 18 17 19 13 11 9 9 8 10 11 12 12 12 10 8 6 6 5 5 4 3 3
6 3 6 8 10 11 11 10 18 11 15 16 17 18 19 20 20 21 22 22 20 18 15 15 16 17 18 18 19 18 15 12 12 12 13 11 10 11 11 11 9 8 6 6 5 4 3 3 2
6 4 7 8 7 9 12 13 17 12 13 12 12 14 16 17 18 19 19 19 18 16 15 15 17 18 18 18 18 18 19 19 19 16 14 11 9 8 10 10 9 8 6 6 5 4 3 2 1
9 5 4 5 6 10 6 11 16 14 12 13 14 14 14 15 16 17 18 17 17 17 17 17 19 19 19 19 18 18 20 21 21 19 15 13 10 9 10 8 8 7 7 6 4 3 2 1 1
13 9 6 5 6 7 7 13 14 13 13 14 15 16 17 17 17 17 17 16 17 19 19 20 20 20 20 19 18 18 18 15 14 15 14 12 10 10 10 9 8 8 7 5 4 2 1 1 3
8 10 7 6 8 10 12 13 14 14 14 14 15 16 17 17 17 17 16 16 17 19 20 21 21 21 20 20 19 19 18 16 16 15 13 11 10 10 11 10 8 7 6 4 2 1 1 2 3
8 6 6 6 6 9 13 17 12 11 10 11 13 15 16 17 16 15 14 14 15 17 18 20 21 21 21 20 18 16 17 17 17 15 14 13 13 12 11 9 8 7 5 3 1 1 2 3 4
11 8 8 7 7 7 11 12 8 11 11 13 15 15 16 17 15 12 10 12 14 16 17 19 20 21 20 20 19 19 18 17 16 15 15 14 13 12 10 9 7 6 4 2 1 2 3 4 5
14 15 14 8 10 10 11 15 10 11 12 13 16 16 16 15 12 8 8 11 14 17 18 19 20 20 20 20 20 19 19 17 16 15 15 14 13 11 9 8 6 4 2 1 2 3 4 6 7
Wind_Direction
307 309 290 267 253 240 244 227 219 210 216 279 293 269 259 244 242 56 102 147 140 152 153 154 151 147 145 140 134 130 129 126 125 123 123 120 111 101 92 85 77 63 51 47 50 53 67 76 86
307 296 255 248 246 239 233 217 205 197 308 315 271 241 240 235 10 87 134 149 151 154 155 158 149 150 148 143 139 137 135 131 127 125 123 119 111 102 92 84 77 70 59 53 53 54 61 66 69
265 270 244 231 234 237 234 201 185 153 316 300 287 242 263 150 106 126 137 153 155 156 157 150 150 153 151 148 144 142 140 136 131 127 123 119 113 105 91 83 79 75 65 58 57 58 55 55 52
218 202 221 233 234 233 239 178 162 267 312 311 314 269 210 83 95 115 140 156 159 159 159 152 156 156 155 152 149 146 146 143 137 132 129 125 118 108 97 91 87 82 72 63 58 55 51 46 38
212 213 221 230 236 231 230 232 233 265 291 309 310 287 215 129 117 133 151 161 162 161 160 157 160 161 160 159 156 153 151 149 145 140 138 135 126 116 107 102 97 91 76 63 54 50 47 38 24
197 209 224 230 234 229 233 237 247 257 269 287 283 266 203 129 150 148 155 163 163 161 163 160 164 164 165 165 163 161 158 156 152 150 146 140 130 120 115 112 106 92 70 53 41 34 27 18 9
209 211 229 235 239 233 233 232 244 254 258 259 259 249 193 155 143 148 155 159 161 164 167 167 172 172 169 169 168 167 165 162 160 158 149 131 116 115 112 108 106 79 42 28 18 14 18 20 17
227 218 232 233 239 239 231 223 241 249 256 255 236 240 211 129 141 146 150 157 163 170 175 175 178 179 178 176 172 169 167 165 162 155 135 124 122 118 113 128 92 41 13 13 19 31 41 46 41
211 221 228 226 236 240 220 225 231 241 245 232 226 256 14 113 154 155 158 165 172 180 184 184 184 183 182 180 173 174 171 167 166 161 144 161 174 163 151 85 77 56 46 51 51 54 54 57 82
207 225 231 235 235 233 211 222 227 226 228 224 212 194 61 155 183 186 186 185 185 187 190 191 192 188 186 181 180 184 180 176 186 177 173 182 175 161 140 116 100 90 94 96 79 73 75 336 33
211 230 237 229 231 237 232 231 235 239 233 226 218 210 23 196 210 216 213 204 198 193 191 196 196 194 191 187 188 185 184 180 185 183 180 179 175 170 174 168 152 144 143 121 103 95 47 32 27
218 231 235 236 232 241 245 248 245 242 244 243 263 289 291 273 244 232 229 221 210 202 198 196 197 196 197 194 192 191 187 185 182 183 184 182 178 178 171 171 151 150 133 104 80 54 56 43 31
224 234 236 244 252 256 255 251 255 255 253 260 268 273 272 268 264 249 240 233 224 215 206 200 198 198 197 197 196 196 193 189 185 182 186 185 181 178 166 159 145 132 116 114 94 73 61 39 27
229 238 249 255 254 256 256 258 251 252 253 256 257 259 259 259 259 256 243 235 228 221 213 203 201 200 198 197 197 196 194 191 188 183 184 184 181 172 163 154 137 122 112 99 92 79 67 43 20
237 255 259 250 249 251 260 259 247 250 251 251 252 252 254 255 256 254 249 242 236 228 218 207 203 201 200 200 198 194 191 188 186 182 182 182 177 167 156 144 134 122 116 110 96 83 58 39 12
224 240 250 232 235 234 235 259 256 249 248 249 251 252 251 251 252 251 249 245 242 234 222 210 202 203 201 199 195 190 187 184 182 179 178 177 169 157 144 135 127 124 118 106 88 65 49 28 358
220 235 245 255 235 243 237 263 266 258 254 254 253 252 251 251 250 248 247 245 242 235 225 213 204 203 200 194 189 185 181 180 177 171 167 163 156 148 136 125 122 124 112 98 86 63 38 19 359
224 227 244 255 255 263 260 261 265 261 265 265 262 258 254 252 250 249 248 246 243 238 229 217 204 199 190 183 179 173 169 167 160 154 153 148 143 137 127 120 120 117 111 103 94 80 54 24 352
255 249 259 265 277 286 273 272 270 268 263 261 258 256 254 253 252 250 248 246 241 232 222 213 201 189 178 176 175 169 164 148 135 131 136 134 133 130 124 121 118 113 108 104 96 82 57 32 0
245 258 266 277 279 281 283 281 275 264 257 255 255 253 251 251 249 246 242 238 234 227 218 209 198 186 181 178 172 166 143 125 116 115 119 124 127 126 124 124 119 115 112 103 87 74 62 43 22
240 248 261 273 296 281 288 287 272 256 248 249 249 249 249 247 246 243 237 232 227 224 215 203 194 184 179 169 152 136 121 117 116 120 116 120 123 121 122 120 117 116 114 103 88 74 62 50 41
248 248 256 269 277 283 288 293 287 275 254 246 247 245 245 243 242 241 238 233 224 219 210 200 188 180 173 164 162 161 161 154 148 140 127 123 120 118 121 119 118 116 113 110 99 82 70 50 35
238 237 245 258 269 278 254 261 281 268 259 254 249 248 247 246 244 241 239 234 227 215 202 190 180 176 170 170 168 167 157 141 134 130 128 123 117 119 122 121 121 117 114 111 106 95 74 57 29
209 220 255 252 258 263 247 234 277 275 267 268 262 258 255 253 251 248 243 235 226 210 194 182 175 172 169 168 167 163 151 145 142 141 137 131 126 125 126 127 124 121 119 117 110 101 91 64 50
195 208 245 235 231 250 248 238 258 274 273 271 273 274 273 269 263 255 245 231 217 202 189 179 173 168 167 165 164 157 153 150 149 147 145 142 138 139 140 135 129 125 123 119 115 110 113 145 265
195 204 225 257 260 276 253 247 261 273 274 270 271 277 281 278 271 261 248 230 213 198 187 178 172 166 164 161 155 150 148 145 144 144 144 140 140 140 140 134 131 129 127 124 125 138 172 231 264
186 213 237 270 280 275 260 260 275 263 261 266 275 282 282 281 275 264 250 229 209 195 186 177 168 162 159 153 147 146 145 142 140 138 135 131 133 137 138 136 134 130 127 127 142 176 238 264 280
221 196 188 212 261 270 270 268 264 277 276 282 288 290 291 291 282 265 244 220 201 191 181 171 164 157 151 147 143 142 141 138 137 135 135 134 136 137 139 139 135 133 133 143 178 233 267 280 287
195 203 211 229 246 268 285 278 284 282 288 297 297 297 299 297 285 261 231 204 186 175 167 161 154 148 145 143 139 137 136 136 134 132 133 134 136 139 139 138 137 137 141 159 223 271 279 287 294
214 217 212 230 242 243 270 279 285 281 292 299 297 298 298 294 279 247 201 174 166 161 157 153 148 145 142 139 136 134 133 134 131 131 133 135 135 135 135 136 135 135 145 201 272 286 288 293 297
Height
1519 1520 1521 1522 1519 1514 1509 1505 1504 1504 1503 1503 1504 1503 1500 1498 1498 1503 1503 1501 1503 1505 1507 1509 1511 1513 1515 1516 1517 1517 1517 1517 1518 1519 1520 1520 1521 1521 1521 1521 1521 1521 1521 1522 1522 1523 1523 1523 1524
1517 1519 1522 1521 1516 1513 1506 1502 1504 1503 1504 1504 1503 1502 1500 1499 1501 1501 1500 1501 1503 1505 1508 1510 1511 1513 1515 1516 1517 1517 1517 1517 1517 1518 1519 1520 1521 1521 1521 1521 1521 1521 1521 1522 1522 1523 1523 1524 1524
1516 1518 1521 1516 1512 1507 1503 1500 1501 1504 1504 1503 1502 1501 1500 1500 1501 1501 1501 1501 1503 1506 1508 1510 1511 1513 1515 1516 1517 1517 1517 1517 1517 1518 1519 1520 1521 1522 1522 1521 1521 1521 1521 1522 1523 1523 1524 1524 1525
1516 1518 1518 1513 1506 1500 1500 1499 1503 1504 1503 1502 1502 1499 1500 1500 1501 1501 1501 1502 1504 1506 1508 1509 1511 1513 1515 1516 1516 1517 1517 1517 1518 1519 1520 1521 1522 1522 1522 1522 1522 1522 1522 1523 1523 1524 1524 1525 1525
1514 1514 1511 1507 1501 1497 1500 1502 1504 1503 1502 1501 1502 1499 1499 1500 1499 1500 1501 1502 1504 1506 1508 1509 1511 1513 1515 1516 1516 1517 1517 1518 1518 1519 1520 1522 1522 1523 1523 1523 1523 1523 1523 1524 1524 1524 1525 1525 1525
1512 1509 1506 1502 1495 1496 1499 1502 1503 1502 1501 1501 1501 1499 1498 1499 1499 1500 1501 1502 1504 1506 1508 1509 1511 1513 1515 1516 1517 1517 1517 1518 1519 1520 1521 1522 1523 1524 1524 1524 1524 1524 1524 1525 1525 1525 1525 1526 1526
1508 1504 1498 1495 1493 1493 1497 1501 1501 1499 1499 1500 1501 1499 1497 1499 1499 1499 1500 1502 1503 1505 1507 1509 1511 1513 1514 1515 1517 1517 1518 1518 1519 1520 1521 1522 1523 1524 1525 1525 1526 1526 1526 1526 1526 1526 1526 1526 1526
1504 1501 1496 1493 1492 1491 1495 1499 1499 1499 1498 1499 1500 1497 1496 1499 1497 1498 1499 1500 1502 1504 1506 1508 1510 1512 1514 1515 1516 1517 1518 1519 1519 1520 1521 1523 1524 1525 1526 1526 1526 1527 1527 1527 1527 1527 1527 1527 1526
1504 1501 1492 1490 1492 1490 1495 1496 1497 1497 1497 1497 1497 1497 1497 1496 1496 1497 1498 1499 1500 1502 1504 1507 1509 1511 1513 1515 1516 1517 1518 1518 1519 1520 1521 1523 1525 1526 1526 1526 1527 1527 1527 1527 1527 1527 1527 1526 1526
1501 1494 1488 1488 1491 1491 1494 1494 1495 1495 1494 1494 1495 1496 1495 1495 1496 1497 1497 1498 1499 1501 1503 1505 1507 1510 1512 1513 1515 1516 1517 1518 1520 1521 1522 1523 1525 1526 1526 1526 1527 1527 1527 1527 1527 1526 1526 1526 1525
1497 1491 1488 1493 1494 1494 1493 1493 1494 1493 1490 1490 1492 1493 1494 1494 1495 1497 1498 1499 1499 1500 1501 1503 1505 1507 1509 1511 1513 1515 1516 1517 1518 1520 1521 1522 1524 1525 1526 1527 1527 1527 1527 1527 1526 1526 1525 1524 1523
1496 1493 1494 1493 1494 1494 1493 1492 1492 1491 1489 1490 1491 1491 1491 1492 1493 1494 1496 1498 1499 1499 1500 1501 1503 1505 1507 1509 1510 1512 1514 1515 1517 1518 1520 1521 1523 1524 1525 1526 1526 1526 1526 1526 1525 1524 1523 1523 1522
1494 1492 1493 1494 1494 1493 1493 1491 1490 1487 1488 1488 1488 1488 1488 1489 1490 1491 1492 1494 1495 1496 1497 1499 1500 1502 1504 1506 1507 1509 1511 1513 1515 1516 1518 1520 1521 1523 1524 1525 1525 1525 1525 1524 1524 1523 1522 1521 1520
1492 1492 1492 1492 1491 1490 1489 1486 1486 1481 1484 1484 1484 1484 1484 1485 1486 1487 1488 1489 1491 1493 1494 1496 1497 1499 1501 1502 1504 1506 1508 1510 1512 1514 1516 1518 1520 1521 1522 1523 1523 1523 1523 1523 1522 1521 1520 1519 1517
1494 1492 1489 1487 1488 1486 1487 1480 1476 1476 1479 1478 1478 1478 1479 1479 1481 1482 1484 1485 1487 1489 1490 1492 1493 1495 1497 1499 1501 1503 1505 1507 1509 1511 1514 1515 1517 1519 1520 1521 1522 1522 1521 1521 1520 1519 1518 1516 1515
1492 1490 1485 1482 1484 1483 1486 1471 1467 1470 1471 1471 1471 1471 1472 1473 1475 1476 1478 1480 1482 1483 1485 1487 1489 1491 1492 1494 1496 1499 1501 1503 1506 1508 1511 1513 1515 1516 1518 1519 1519 1520 1520 1519 1518 1517 1516 1514 1512
1489 1484 1481 1480 1481 1480 1478 1468 1465 1468 1468 1466 1465 1465 1466 1467 1468 1470 1472 1474 1476 1477 1479 1481 1483 1485 1487 1490 1492 1494 1497 1500 1502 1505 1507 1509 1512 1514 1515 1516 1517 1518 1518 1517 1516 1515 1514 1512 1510
1480 1481 1482 1479 1477 1478 1473 1465 1463 1464 1464 1462 1461 1460 1460 1460 1461 1463 1465 1467 1468 1470 1473 1475 1477 1480 1482 1484 1486 1489 1492 1495 1498 1500 1503 1506 1508 1510 1512 1514 1515 1515 1516 1515 1514 1513 1511 1509 1507
1483 1482 1480 1478 1477 1478 1468 1460 1457 1457 1456 1454 1453 1453 1453 1453 1454 1456 1457 1458 1460 1462 1465 1468 1471 1473 1475 1477 1480 1482 1485 1489 1492 1496 1499 1502 1505 1507 1509 1511 1512 1513 1513 1513 1512 1511 1509 1507 1505
1485 1485 1483 1479 1478 1478 1465 1453 1448 1446 1444 1444 1444 1443 1443 1444 1445 1446 1448 1450 1451 1454 1457 1460 1463 1466 1469 1471 1474 1477 1480 1483 1487 1491 1495 1498 1501 1504 1506 1508 1510 1511 1511 1511 1510 1508 1506 1504 1502
1484 1484 1481 1480 1477 1473 1468 1442 1428 1426 1430 1433 1433 1433 1433 1433 1434 1436 1438 1440 1442 1445 1449 1452 1456 1459 1462 1464 1467 1470 1474 1478 1483 1487 1491 1495 1498 1501 1503 1506 1507 1508 1509 1508 1507 1506 1504 1502 1501
1482 1481 1482 1482 1481 1472 1470 1452 1418 1420 1422 1424 1424 1423 1422 1423 1424 1426 1428 1430 1433 1436 1441 1444 1448 1451 1454 1457 1461 1464 1468 1472 1477 1482 1487 1491 1495 1498 1501 1503 1505 1506 1506 1506 1504 1503 1502 1501 1499
1479 1481 1482 1481 1479 1476 1466 1466 1418 1414 1414 1414 1414 1415 1415 1415 1416 1417 1418 1421 1425 1428 1432 1436 1440 1444 1448 1452 1456 1460 1464 1468 1474 1479 1484 1488 1492 1495 1498 1501 1502 1503 1503 1503 1502 1500 1499 1498 1497
1480 1482 1480 1478 1479 1475 1452 1453 1416 1402 1402 1403 1406 1407 1408 1408 1409 1409 1411 1413 1416 1420 1423 1428 1433 1437 1442 1446 1451 1455 1459 1463 1469 1475 1480 1484 1489 1492 1496 1498 1500 1500 1500 1500 1499 1498 1496 1495 1494
1481 1482 1476 1473 1472 1457 1441 1441 1415 1399 1401 1402 1402 1402 1402 1402 1403 1402 1403 1405 1407 1411 1415 1420 1426 1431 1436 1441 1446 1451 1456 1461 1466 1472 1477 1482 1486 1490 1493 1496 1497 1498 1497 1497 1496 1495 1494 1492 1490
1475 1475 1470 1463 1449 1438 1437 1430 1404 1397 1398 1399 1399 1398 1397 1396 1396 1395 1395 1397 1400 1403 1407 1413 1419 1425 1430 1436 1441 1447 1453 1458 1464 1470 1475 1480 1485 1488 1491 1493 1494 1495 1495 1494 1493 1492 1491 1489 1487
1471 1472 1466 1467 1459 1454 1429 1411 1398 1394 1394 1394 1394 1393 1390 1389 1388 1387 1388 1390 1392 1396 1401 1407 1413 1419 1425 1431 1437 1443 1450 1456 1462 1468 1474 1479 1484 1487 1489 1491 1492 1492 1492 1491 1490 1489 1487 1486 1483
1465 1465 1469 1471 1460 1442 1416 1403 1393 1384 1386 1387 1388 1386 1384 1382 1379 1379 1380 1383 1386 1391 1396 1402 1409 1414 1420 1427 1434 1440 1447 1454 1461 1467 1473 1478 1482 1485 1487 1488 1489 1489 1489 1488 1487 1486 1484 1482 1479
1465 1467 1463 1458 1452 1444 1420 1394 1379 1381 1382 1383 1383 1381 1379 1376 1372 1372 1374 1377 1382 1387 1393 1398 1405 1411 1418 1425 1432 1439 1446 1453 1460 1467 1472 1477 1481 1483 1485 1486 1487 1487 1486 1486 1484 1483 1481 1478 1475
1453 1452 1454 1456 1446 1440 1427 1396 1379 1379 1379 1381 1380 1377 1374 1370 1367 1367 1370 1374 1379 1384 1390 1396 1402 1409 1416 1423 1431 1438 1446 1453 1460 1466 1471 1476 1479 1481 1483 1484 1484 1484 1484 1483 1481 1479 1477 1474 1471